When you browse on this site, cookies collect data to enhance your experience and personalize the content and advertising you see.
Visit our Privacy Policy to learn more. By continuing to use the site, you agree to this use of cookies and data.
  • In United Kingdom
  • List of Countries
  • For 7 days
  • Water Temperature
  • Weather Map
  • Weather Widgets
  • user-avatar
    Login

    Hourly Weather Abomey

    Today, 15 September, Sunday

    Time Temperature Precipitation Wind Pressure Humidity
    00:00 +22°C° 0 mm 0 mps 740 mmHg 92%
    01:00 +22°C° 0 mm 0 mps 739 mmHg 92%
    02:00 +22°C° 0 mm 0 mps 739 mmHg 92%
    03:00 +22°C° 0 mm 0 mps 738 mmHg 92%
    04:00 +22°C° 0 mm 0 mps 739 mmHg 93%
    05:00 +24°C° 0 mm 1 mps 739 mmHg 93%
    06:00 +24°C° 0 mm 1 mps 740 mmHg 91%
    07:00 +25°C° 0 mm 1 mps 740 mmHg 87%
    08:00 +27°C° 0 mm 1 mps 740 mmHg 82%
    09:00 +28°C° 0 mm 2 mps 741 mmHg 77%
    10:00 +29°C° 0 mm 2 mps 740 mmHg 74%
    11:00 +30°C° 0 mm 1 mps 740 mmHg 71%
    12:00 +31°C° 0 mm 2 mps 739 mmHg 68%
    13:00 +30°C° 1.9 mm 2 mps 739 mmHg 71%
    14:00 +30°C° 1.9 mm 2 mps 738 mmHg 74%
    15:00 +29°C° 1.9 mm 2 mps 737 mmHg 77%
    16:00 +28°C° 1.2 mm 2 mps 738 mmHg 81%
    17:00 +27°C° 1.2 mm 2 mps 738 mmHg 85%
    18:00 +26°C° 1.2 mm 2 mps 738 mmHg 89%
    19:00 +26°C° 0 mm 2 mps 739 mmHg 91%
    20:00 +25°C° 0 mm 2 mps 739 mmHg 92%
    21:00 +25°C° 0 mm 2 mps 740 mmHg 94%
    22:00 +25°C° 0 mm 2 mps 739 mmHg 94%
    23:00 +25°C° 0 mm 2 mps 739 mmHg 95%

    Tomorrow, 16 September, Monday

    Time Temperature Precipitation Wind Pressure Humidity
    00:00 +24°C° 0 mm 2 mps 739 mmHg 95%
    01:00 +24°C° 0 mm 1 mps 739 mmHg 96%
    02:00 +24°C° 0 mm 1 mps 739 mmHg 96%
    03:00 +24°C° 0 mm 1 mps 738 mmHg 96%
    04:00 +24°C° 0 mm 1 mps 739 mmHg 96%
    05:00 +24°C° 0 mm 1 mps 739 mmHg 97%
    06:00 +24°C° 0 mm 1 mps 739 mmHg 97%
    07:00 +25°C° 0 mm 2 mps 740 mmHg 92%
    08:00 +26°C° 0 mm 2 mps 740 mmHg 88%
    09:00 +27°C° 0 mm 2 mps 741 mmHg 83%
    10:00 +29°C° 0.1 mm 2 mps 740 mmHg 78%
    11:00 +30°C° 0.1 mm 2 mps 740 mmHg 72%
    12:00 +31°C° 0.1 mm 2 mps 739 mmHg 67%
    13:00 +31°C° 1.6 mm 2 mps 738 mmHg 70%
    14:00 +30°C° 1.6 mm 3 mps 738 mmHg 73%
    15:00 +30°C° 1.6 mm 3 mps 737 mmHg 76%
    16:00 +29°C° 0.4 mm 3 mps 737 mmHg 80%
    17:00 +28°C° 0.4 mm 2 mps 737 mmHg 85%
    18:00 +27°C° 0.4 mm 2 mps 738 mmHg 89%
    19:00 +26°C° 0 mm 2 mps 738 mmHg 91%
    20:00 +26°C° 0 mm 2 mps 739 mmHg 92%
    21:00 +25°C° 0 mm 2 mps 739 mmHg 93%
    22:00 +25°C° 0 mm 2 mps 739 mmHg 93%
    23:00 +25°C° 0 mm 2 mps 739 mmHg 94%

    Day after tomorrow, 17 September, Tuesday

    Time Temperature Precipitation Wind Pressure Humidity
    00:00 +24°C° 0 mm 2 mps 739 mmHg 94%
    01:00 +24°C° 0.4 mm 2 mps 739 mmHg 95%
    02:00 +24°C° 0.4 mm 3 mps 739 mmHg 95%
    03:00 +24°C° 0.4 mm 3 mps 738 mmHg 95%
    04:00 +24°C° 1.1 mm 2 mps 739 mmHg 96%
    05:00 +24°C° 1.1 mm 2 mps 739 mmHg 96%
    06:00 +24°C° 1.1 mm 1 mps 739 mmHg 97%
    07:00 +24°C° 0.5 mm 1 mps 739 mmHg 95%
    08:00 +25°C° 0.5 mm 2 mps 740 mmHg 93%
    09:00 +25°C° 0.5 mm 2 mps 740 mmHg 91%
    10:00 +25°C° 0.7 mm 2 mps 740 mmHg 91%
    11:00 +26°C° 0.7 mm 1 mps 739 mmHg 91%
    12:00 +26°C° 0.7 mm 1 mps 739 mmHg 91%
    13:00 +25°C° 0.6 mm 1 mps 738 mmHg 92%
    14:00 +25°C° 0.6 mm 1 mps 738 mmHg 93%
    15:00 +25°C° 0.6 mm 1 mps 738 mmHg 94%
    16:00 +25°C° 0.2 mm 1 mps 738 mmHg 94%
    17:00 +25°C° 0.2 mm 1 mps 738 mmHg 95%
    18:00 +24°C° 0.2 mm 1 mps 738 mmHg 95%
    19:00 +24°C° 0.1 mm 1 mps 739 mmHg 96%
    20:00 +24°C° 0.1 mm 1 mps 739 mmHg 96%
    21:00 +24°C° 0.1 mm 2 mps 739 mmHg 96%
    22:00 +24°C° 0 mm 1 mps 739 mmHg 96%
    23:00 +24°C° 0 mm 1 mps 739 mmHg 97%

    18 September, Wednesday

    Time Temperature Precipitation Wind Pressure Humidity
    00:00 +24°C° 0 mm 1 mps 739 mmHg 97%
    01:00 +24°C° 0 mm 1 mps 738 mmHg 97%
    02:00 +24°C° 0 mm 1 mps 738 mmHg 97%
    03:00 +24°C° 0 mm 1 mps 738 mmHg 97%
    04:00 +24°C° 0 mm 1 mps 738 mmHg 97%
    05:00 +22°C° 0 mm 0 mps 739 mmHg 97%
    06:00 +22°C° 0 mm 0 mps 739 mmHg 97%
    07:00 +22°C° 0 mm 0 mps 740 mmHg 96%
    08:00 +24°C° 0 mm 1 mps 740 mmHg 95%
    09:00 +25°C° 0 mm 1 mps 740 mmHg 94%
    10:00 +25°C° 0.1 mm 1 mps 739 mmHg 93%
    11:00 +25°C° 0.1 mm 1 mps 739 mmHg 91%
    12:00 +26°C° 0.1 mm 1 mps 739 mmHg 90%
    13:00 +26°C° 0.2 mm 1 mps 738 mmHg 89%
    14:00 +26°C° 0.2 mm 1 mps 738 mmHg 89%
    15:00 +26°C° 0.2 mm 1 mps 737 mmHg 88%
    16:00 +26°C° 0.7 mm 1 mps 738 mmHg 90%
    17:00 +25°C° 0.7 mm 1 mps 738 mmHg 93%
    18:00 +25°C° 0.7 mm 1 mps 738 mmHg 95%
    19:00 +25°C° 2.9 mm 1 mps 739 mmHg 95%
    20:00 +24°C° 2.9 mm 1 mps 739 mmHg 96%
    21:00 +24°C° 2.9 mm 1 mps 739 mmHg 96%
    22:00 +24°C° 0.2 mm 1 mps 739 mmHg 96%
    23:00 +24°C° 0.2 mm 1 mps 739 mmHg 96%

    19 September, Thursday

    Time Temperature Precipitation Wind Pressure Humidity
    00:00 +24°C° 0.2 mm 1 mps 739 mmHg 96%
    01:00 +22°C° 0 mm 0 mps 739 mmHg 96%
    02:00 +22°C° 0 mm 0 mps 739 mmHg 95%
    03:00 +22°C° 0 mm 0 mps 738 mmHg 95%
    04:00 +22°C° 0 mm 0 mps 739 mmHg 95%
    05:00 +22°C° 0 mm 0 mps 739 mmHg 95%
    06:00 +22°C° 0 mm 0 mps 740 mmHg 95%
    07:00 +23°C° 0 mm 0 mps 740 mmHg 90%
    08:00 +25°C° 0 mm 0 mps 740 mmHg 85%
    09:00 +26°C° 0 mm 0 mps 740 mmHg 80%
    10:00 +27°C° 0 mm 0 mps 740 mmHg 76%
    11:00 +28°C° 0 mm 0 mps 739 mmHg 72%
    12:00 +29°C° 0 mm 0 mps 739 mmHg 67%
    13:00 +29°C° 0 mm 0 mps 738 mmHg 67%
    14:00 +29°C° 0 mm 0 mps 738 mmHg 66%
    15:00 +31°C° 0 mm 1 mps 737 mmHg 66%
    16:00 +30°C° 0.1 mm 1 mps 737 mmHg 71%
    17:00 +29°C° 0.1 mm 1 mps 738 mmHg 76%
    18:00 +28°C° 0.1 mm 1 mps 738 mmHg 81%
    19:00 +27°C° 0.3 mm 1 mps 738 mmHg 84%
    20:00 +26°C° 0.3 mm 2 mps 738 mmHg 87%
    21:00 +26°C° 0.3 mm 2 mps 739 mmHg 91%
    22:00 +25°C° 0.8 mm 2 mps 739 mmHg 92%
    23:00 +25°C° 0.8 mm 2 mps 739 mmHg 94%

    20 September, Friday

    Time Temperature Precipitation Wind Pressure Humidity
    00:00 +25°C° 0.8 mm 1 mps 739 mmHg 95%
    01:00 +25°C° 1.1 mm 2 mps 739 mmHg 96%
    02:00 +24°C° 1.1 mm 2 mps 739 mmHg 96%
    03:00 +24°C° 1.1 mm 2 mps 738 mmHg 96%
    04:00 +24°C° 0.5 mm 2 mps 739 mmHg 96%
    05:00 +24°C° 0.5 mm 2 mps 739 mmHg 96%
    06:00 +24°C° 0.5 mm 2 mps 740 mmHg 96%
    07:00 +25°C° 0.1 mm 2 mps 740 mmHg 95%
    08:00 +25°C° 0.1 mm 2 mps 740 mmHg 93%
    09:00 +26°C° 0.1 mm 2 mps 740 mmHg 92%
    10:00 +27°C° 0 mm 2 mps 740 mmHg 85%
    11:00 +28°C° 0 mm 2 mps 739 mmHg 79%
    12:00 +30°C° 0 mm 2 mps 739 mmHg 73%
    13:00 +30°C° 0 mm 2 mps 738 mmHg 72%
    14:00 +30°C° 0 mm 2 mps 738 mmHg 70%
    15:00 +31°C° 0 mm 2 mps 737 mmHg 69%
    16:00 +29°C° 1 mm 2 mps 737 mmHg 75%
    17:00 +28°C° 1 mm 2 mps 737 mmHg 81%
    18:00 +27°C° 1 mm 2 mps 738 mmHg 87%
    19:00 +26°C° 1.8 mm 2 mps 738 mmHg 90%
    20:00 +25°C° 1.8 mm 3 mps 739 mmHg 92%
    21:00 +25°C° 1.8 mm 3 mps 739 mmHg 95%
    22:00 +25°C° 0.1 mm 2 mps 739 mmHg 95%
    23:00 +25°C° 0.1 mm 1 mps 739 mmHg 96%
    Show more